Weather History for Wautoma, WI

Change the Weather History Date:

Tuesday, October 1, 2013

  Actual Average (KPCZ) Record (KPCZ)
Temperature  
Mean Temperature 62 °F -  
Max Temperature 81 °F 67 °F 89 °F (1976)
Min Temperature 46 °F 43 °F 29 °F (1955)
Degree Days  
Heating Degree Days 2    
Growing Degree Days 12 (Base 50)    
Moisture  
Dew Point 53 °F    
Average Humidity 71    
Maximum Humidity 100    
Minimum Humidity 41    
Precipitation  
Precipitation 0.00 in - - ()
Sea Level Pressure  
Sea Level Pressure 29.83 in    
Wind  
Wind Speed 6 mph (SW)    
Max Wind Speed 16 mph    
Max Gust Speed 21 mph    
Visibility 10 miles    
Events      
Averages and records for this station are not official NWS values.
T = Trace of Precipitation, MM = Missing Value Source: NWS Daily Summary

Daily Weather History Graph

Daily Weather History Graph

Search for Another Location

Airport:

Trip Planner

Search our weather history database for the weather conditions in past years. The results will help you decide how hot, cold, wet, or windy it might be!

Date:

Astronomy

Oct. 01, 2013 Rise Set
Actual Time 6:55 AM CDT 6:37 PM CDT
Civil Twilight 6:26 AM CDT 7:06 PM CDT
Nautical Twilight 5:52 AM CDT 7:39 PM CDT
Astronomical Twilight 5:18 AM CDT 8:13 PM CDT
Moon 3:23 AM CDT (10/1) 4:46 PM CDT (10/1)
Length of Visible Light 12h 39m
Length of Day
11h 42m
Waning Crescent, 12% of the Moon is Illuminated
Oct 1
Waning Crescent
Oct 4
New
Oct 11
First Quarter
Oct 18
Full
Oct 26
Last Quarter

Hourly Weather History & Observations

Time (CDT) Temp. Dew Point Humidity Pressure Visibility Wind Dir Wind Speed Gust Speed Precip Events Conditions
12:56 AM 46.9 °F 46.9 °F 100% 29.81 in 10.0 mi Calm Calm - N/A   Clear
1:56 AM 47.8 °F 47.8 °F 100% 29.81 in 10.0 mi Calm Calm - N/A   Clear
2:56 AM 48.9 °F 48.9 °F 100% 29.80 in 10.0 mi Calm Calm - N/A   Clear
3:56 AM 47.8 °F 47.8 °F 100% 29.79 in 10.0 mi Calm Calm - N/A   Clear
4:56 AM 55.9 °F 55.9 °F 100% 29.78 in 10.0 mi South 6.9 mph - N/A   Clear
5:56 AM 57.9 °F 57.9 °F 100% 29.79 in 10.0 mi South 6.9 mph - N/A   Clear
6:56 AM 57.9 °F 57.9 °F 100% 29.79 in 10.0 mi South 9.2 mph - N/A   Clear
7:56 AM 59.9 °F 59.9 °F 100% 29.79 in 10.0 mi South 8.1 mph - N/A   Clear
8:56 AM 65.8 °F 61.0 °F 84% 29.78 in 10.0 mi SSW 10.4 mph - N/A   Clear
9:56 AM 70.0 °F 59.0 °F 68% 29.79 in 10.0 mi SW 12.7 mph 19.6 mph N/A   Clear
10:56 AM 72.9 °F 57.9 °F 59% 29.79 in 10.0 mi WSW 15.0 mph 20.7 mph N/A   Clear
11:56 AM 75.9 °F 56.8 °F 51% 29.81 in 10.0 mi SW 16.1 mph 20.7 mph N/A   Clear
12:56 PM 77.0 °F 57.9 °F 52% 29.81 in 10.0 mi SW 13.8 mph - N/A   Clear
1:56 PM 79.0 °F 56.8 °F 46% 29.80 in 10.0 mi SW 11.5 mph 18.4 mph N/A   Clear
2:56 PM 79.9 °F 56.8 °F 45% 29.81 in 10.0 mi WSW 13.8 mph - N/A   Clear
3:56 PM 79.9 °F 54.9 °F 42% 29.81 in 10.0 mi WSW 15.0 mph 19.6 mph N/A   Clear
4:56 PM 79.0 °F 54.9 °F 43% 29.82 in 10.0 mi WSW 12.7 mph - N/A   Clear
5:56 PM 75.9 °F 50.9 °F 41% 29.85 in 10.0 mi West 8.1 mph - N/A   Clear
6:56 PM 66.9 °F 52.0 °F 59% 29.87 in 10.0 mi West 8.1 mph - N/A   Clear
7:56 PM 65.8 °F 48.9 °F 54% 29.90 in 10.0 mi West 8.1 mph - N/A   Clear
8:56 PM 64.9 °F 43.0 °F 45% 29.91 in 10.0 mi West 6.9 mph - N/A   Clear
9:56 PM 59.0 °F 43.0 °F 55% 29.93 in 10.0 mi WNW 3.5 mph - N/A   Clear
10:56 PM 50.0 °F 45.9 °F 86% 29.96 in 10.0 mi Calm Calm - N/A   Clear
11:56 PM 48.9 °F 43.9 °F 83% 29.97 in 10.0 mi NW 4.6 mph - N/A   Clear